Temp
19 19 19 19 18 18 18 18 18 18 18 18 17 17 17 17 17 17 17 17 17 17 17 17 17 17 16 16 16 16 16 16 16 16 16 16 16 16 16 16 16 16
19 19 19 19 19 18 18 18 18 18 18 18 17 17 17 17 17 17 17 17 17 17 17 17 17 17 17 16 16 16 16 16 16 16 16 16 16 16 16 16 16 16
19 19 19 19 19 19 18 18 18 18 18 18 18 17 17 17 17 17 17 17 17 17 17 17 17 17 17 16 16 16 16 16 16 16 16 16 16 16 16 16 16 16
19 19 19 19 19 18 18 18 18 18 18 18 17 17 17 17 17 16 16 17 17 17 17 17 16 17 17 16 16 16 16 16 17 17 17 17 17 17 17 16 16 16
19 19 19 19 18 18 18 18 18 18 18 17 17 17 17 17 16 16 16 16 16 16 17 17 16 17 17 16 16 16 16 17 17 17 17 18 18 17 17 17 16 16
19 19 19 18 18 18 18 18 18 18 18 17 17 17 17 16 16 16 16 16 16 16 16 16 16 16 17 16 16 16 17 17 17 17 18 18 18 18 18 17 17 17
19 19 18 18 18 18 18 18 18 18 18 17 17 17 16 16 16 16 16 16 16 16 16 16 16 16 16 17 17 16 16 17 17 17 18 17 17 18 18 18 17 17
18 18 18 18 18 18 18 18 18 18 17 17 17 17 16 16 16 16 16 16 16 16 16 16 16 16 16 16 17 16 16 17 17 17 18 17 18 18 18 18 18 17
18 18 18 18 18 18 18 18 18 17 17 17 17 17 16 16 16 16 16 16 16 16 16 16 16 16 16 16 16 16 16 16 17 17 17 17 18 18 18 18 18 18
17 17 17 17 18 18 18 18 17 17 17 17 17 16 16 16 16 16 16 16 16 16 16 16 16 16 16 16 16 16 16 16 17 17 17 17 17 18 18 18 18 18
16 16 16 17 17 17 17 17 17 17 17 17 17 16 16 16 16 16 16 16 16 16 16 16 16 16 16 16 16 16 16 16 16 17 17 17 17 17 17 18 18 18
16 16 16 16 16 16 16 16 16 17 17 17 17 17 16 16 16 16 16 16 16 16 16 16 16 16 16 16 16 16 16 16 16 16 17 17 17 17 17 17 18 18
16 16 15 15 15 15 15 15 15 16 16 17 17 17 17 17 16 16 16 16 16 16 16 16 16 16 16 16 16 16 16 16 16 16 16 17 17 17 17 17 17 17
14 14 15 15 14 14 15 15 15 15 16 16 17 17 17 17 17 17 17 17 16 16 16 16 16 16 16 16 17 17 17 16 16 16 17 17 17 17 17 17 17 17
12 13 14 14 14 14 14 15 15 15 16 16 16 16 16 17 17 17 17 17 17 17 16 16 16 16 16 17 17 17 17 17 17 17 17 17 17 17 17 17 17 17
12 13 13 13 14 14 14 15 15 15 15 15 16 16 16 16 17 17 17 17 17 17 17 17 17 16 17 16 17 17 17 17 17 17 17 17 17 17 17 17 17 17
13 13 13 13 13 14 14 14 14 14 15 15 15 15 16 16 16 16 17 17 17 17 17 17 17 17 17 17 17 17 17 17 17 17 17 17 17 17 17 17 17 17
12 12 12 13 13 13 13 14 14 14 14 15 15 15 15 15 16 15 16 16 17 17 17 17 17 17 17 17 17 17 17 17 17 17 17 17 17 17 17 17 17 17
11 11 12 12 12 12 12 13 13 13 14 15 15 15 14 15 15 15 15 15 16 16 17 17 17 17 17 17 17 17 17 17 17 17 17 17 17 17 17 17 17 17
11 11 11 11 11 12 12 12 12 12 13 14 14 14 14 14 14 15 15 15 15 15 16 16 16 17 17 17 17 17 17 17 17 17 17 17 17 17 17 17 17 17
11 11 11 11 11 12 12 12 12 12 12 12 13 13 13 13 14 14 14 14 14 14 15 15 15 16 16 17 17 17 17 17 17 17 17 17 17 17 17 17 17 17
10 10 10 10 11 11 11 11 11 11 12 12 12 12 13 13 13 14 14 14 14 14 14 14 15 15 15 15 16 16 16 16 16 16 16 17 17 17 17 17 17 17
9 10 9 9 10 10 10 10 10 11 11 11 11 12 12 12 13 13 13 13 14 14 14 14 14 14 14 14 14 15 15 16 16 16 16 16 16 16 16 16 16 16
8 9 9 9 9 9 9 9 9 10 10 10 11 11 11 11 12 12 12 13 13 13 14 14 14 14 14 14 14 14 14 14 15 15 15 15 15 16 16 15 15 15
7 8 8 8 8 8 8 8 8 9 9 9 10 10 10 10 11 12 12 12 12 12 13 13 14 14 14 14 14 14 13 13 13 14 14 15 15 15 15 14 14 15
7 7 7 7 7 7 7 7 7 8 8 9 9 9 10 10 10 11 11 11 11 12 12 12 13 13 13 13 13 13 13 12 12 12 13 14 14 14 14 13 13 14
Height
805 807 809 811 814 816 817 818 819 820 821 821 822 823 824 825 825 825 826 827 827 827 828 828 828 827 827 827 828 829 829 830 830 830 831 831 831 832 832 833 835 836
806 808 810 811 813 815 817 818 819 819 820 821 822 823 824 824 825 825 826 827 827 828 828 828 829 828 828 828 828 829 829 829 830 830 831 831 831 831 832 833 834 835
806 808 809 811 813 814 816 817 818 819 820 821 821 822 824 824 825 826 826 827 827 828 828 829 829 829 829 829 829 829 829 830 830 830 831 831 831 831 831 832 833 835
805 807 809 810 812 814 816 817 818 819 820 821 822 823 824 825 825 826 826 827 828 828 829 829 830 830 830 830 829 830 830 830 830 830 831 831 831 832 832 832 833 835
804 806 808 810 812 814 816 817 818 819 820 821 822 823 824 825 826 826 826 827 827 828 829 830 830 831 831 830 830 831 831 831 831 831 831 831 832 832 832 833 833 835
804 806 808 811 813 815 816 817 818 819 820 821 822 823 824 825 826 826 826 827 828 829 830 830 831 831 831 831 831 832 832 833 833 833 833 833 833 833 833 834 834 835
804 806 808 810 813 815 817 817 818 819 820 821 822 823 824 825 826 826 826 827 828 830 831 831 832 832 832 832 832 833 833 834 834 834 834 834 834 834 834 835 835 835
802 804 807 809 812 814 817 818 819 820 821 822 823 824 825 825 826 826 827 828 829 830 831 832 833 833 833 833 833 833 834 834 835 836 836 836 836 836 836 836 836 837
802 805 807 808 811 814 816 817 819 820 822 823 824 825 826 826 826 827 827 828 828 830 831 832 833 833 833 834 834 834 834 835 836 836 837 837 837 837 837 837 838 838
804 806 807 809 811 814 816 817 819 821 822 823 824 825 826 827 827 827 828 828 829 829 830 831 832 833 833 834 834 835 835 835 836 837 837 838 838 839 839 839 839 839
804 807 809 811 812 814 816 818 820 821 822 823 824 825 826 827 828 828 828 829 829 830 830 831 832 832 833 833 834 835 835 836 837 837 838 839 839 840 840 841 841 841
805 807 810 812 814 815 817 819 821 822 823 824 825 825 826 827 828 828 829 829 830 830 831 831 832 832 833 833 834 835 835 836 837 838 838 839 840 840 841 842 842 843
805 807 810 813 816 817 818 821 822 822 823 824 825 825 826 827 828 828 829 829 830 830 831 831 832 832 833 833 834 834 835 836 837 838 838 839 840 841 842 842 843 843
806 808 810 812 816 818 819 821 823 823 823 824 825 825 826 827 828 828 829 829 830 830 831 831 832 832 832 833 833 834 835 836 836 838 838 839 840 841 842 842 843 843
808 809 810 812 815 817 819 821 823 823 823 824 824 825 826 827 828 828 828 829 829 830 831 831 832 832 832 833 833 834 834 835 836 837 838 839 840 841 842 842 843 843
810 811 812 814 815 817 818 821 822 822 823 824 824 825 826 827 827 827 828 828 829 829 830 831 831 832 832 832 833 833 834 835 836 837 838 839 840 840 841 841 842 842
811 813 813 814 816 817 818 819 820 821 823 824 824 825 826 826 827 827 827 828 828 828 829 830 831 831 832 832 833 833 834 835 836 837 837 838 839 839 840 841 841 842
812 813 814 815 816 817 818 819 820 821 823 824 824 825 826 826 827 827 827 827 828 828 828 829 830 831 832 832 833 833 834 835 836 836 837 837 838 838 839 840 840 841
813 814 815 816 817 817 818 819 819 821 823 824 824 825 826 826 827 827 827 827 827 827 827 828 829 830 831 832 832 833 834 834 835 836 836 836 837 837 838 838 839 840
815 815 816 817 818 818 818 819 820 821 823 823 823 824 825 826 826 826 826 827 827 827 827 827 828 829 829 830 831 832 833 833 834 835 835 835 835 836 836 837 838 838
817 817 818 818 819 819 819 820 821 822 823 823 823 824 825 825 826 826 826 826 826 826 826 827 827 828 828 829 829 830 831 832 833 833 834 834 834 834 835 835 836 836
819 819 819 820 820 820 820 821 822 823 823 824 825 825 826 826 826 826 826 826 825 825 825 825 826 826 827 827 828 829 829 830 831 831 832 832 832 833 833 834 834 835
821 821 821 822 822 822 823 823 823 824 824 825 826 826 826 826 826 826 826 826 825 825 824 824 825 825 826 826 827 827 828 828 829 829 830 830 830 830 831 831 832 832
823 823 823 823 824 824 825 825 825 825 826 826 827 827 827 827 826 826 826 826 825 824 824 823 823 824 824 825 825 826 827 827 827 827 827 828 827 828 828 828 830 831
825 825 826 826 827 827 828 828 828 828 828 828 827 827 827 826 826 825 825 825 825 824 824 823 822 822 822 822 823 823 824 825 826 826 826 826 826 825 825 825 828 830
826 826 827 827 828 829 829 830 829 829 828 828 827 826 825 825 824 824 824 824 824 824 823 822 821 821 821 821 821 821 821 822 823 824 824 824 824 823 823 823 825 826
Wind_Speed
25 23 21 20 20 19 17 17 15 14 13 11 10 10 11 11 10 10 10 10 10 10 10 9 7 6 6 6 7 8 9 9 10 11 10 10 9 12 16 18 18 16
24 22 21 20 20 19 17 16 16 15 13 11 10 10 10 10 10 11 10 10 9 8 10 11 8 5 6 6 7 8 9 10 11 10 10 9 9 11 14 18 18 16
23 22 21 21 21 19 18 17 16 15 13 11 11 10 10 10 10 10 10 10 8 7 8 11 9 6 6 6 7 8 9 10 11 10 9 10 10 10 12 16 17 16
24 23 22 21 20 19 18 18 17 15 13 13 12 11 10 10 10 10 10 9 8 7 8 12 12 8 6 7 7 7 8 9 9 10 10 10 10 10 12 13 15 15
24 23 21 20 20 20 19 18 17 15 15 14 13 12 11 10 10 10 9 8 8 8 9 13 14 10 7 8 8 8 8 8 8 8 10 10 11 11 12 13 14 15
24 22 20 19 19 19 19 17 16 15 15 15 14 12 11 10 9 9 9 9 9 10 10 12 15 13 9 8 9 9 8 7 9 10 11 11 13 13 12 12 15 16
23 21 20 20 19 18 17 15 14 14 16 15 13 12 11 10 9 9 9 9 10 9 9 11 13 13 11 9 9 9 9 7 9 13 14 14 15 15 13 12 15 17
24 21 19 19 17 17 16 14 13 14 15 14 12 11 10 10 11 11 10 9 9 8 8 9 10 10 11 10 9 10 10 8 10 13 15 15 16 15 13 13 16 19
22 19 19 19 18 17 16 14 14 14 14 12 10 10 11 11 10 10 10 9 8 9 9 8 8 9 9 10 10 10 10 9 11 13 14 14 14 14 14 14 16 19
19 17 18 19 19 18 17 15 15 15 13 10 9 11 11 10 9 8 9 9 9 9 10 8 8 8 9 10 11 10 10 11 11 12 12 11 12 13 14 15 17 19
19 17 17 18 19 18 18 18 16 13 10 9 9 11 11 9 8 8 8 9 9 9 10 9 8 8 9 11 11 10 11 11 11 11 10 10 11 12 14 15 17 18
21 20 18 16 15 16 16 15 13 11 9 8 9 10 10 9 8 8 8 8 9 9 10 9 8 8 8 10 10 9 10 11 12 11 10 10 9 10 12 13 14 15
23 22 19 16 13 13 13 10 10 12 10 8 8 9 10 10 9 9 9 8 8 9 10 10 9 9 9 8 9 8 8 11 13 13 11 10 9 9 10 11 12 12
18 18 17 16 13 12 12 9 9 12 11 10 10 10 10 11 10 10 10 10 10 9 10 11 11 10 9 9 9 9 9 11 13 13 12 11 11 11 11 11 11 11
14 15 15 15 14 14 14 12 10 11 11 11 12 12 11 11 11 11 12 12 11 11 11 11 12 11 10 10 10 10 11 13 13 13 13 13 14 13 13 13 12 11
14 15 14 13 12 13 14 11 9 8 7 7 8 9 9 9 9 11 13 13 12 12 13 13 13 12 12 11 11 11 12 14 14 14 14 15 16 16 16 16 15 13
11 12 11 9 9 11 12 11 11 10 8 8 7 5 5 5 5 8 11 13 13 13 14 15 14 14 12 13 14 14 13 14 16 16 16 16 16 17 18 17 16 15
12 11 9 8 7 8 8 8 9 8 7 7 7 6 4 3 2 2 4 8 10 11 14 16 16 16 14 14 16 17 17 17 16 17 18 17 16 17 18 18 17 17
21 19 17 16 14 12 10 9 9 7 5 4 2 3 3 2 1 1 1 3 5 7 10 13 16 17 18 18 18 18 19 19 19 19 19 20 19 18 19 19 19 19
28 26 25 23 21 19 17 16 15 12 8 4 2 2 2 2 3 2 2 3 4 4 6 8 11 14 16 19 21 22 22 22 22 22 21 22 22 22 22 22 22 22
27 27 26 25 24 23 22 21 19 17 14 10 8 7 6 5 5 4 4 4 4 5 5 6 6 8 11 14 18 22 25 26 26 25 25 25 24 25 25 25 25 26
25 25 25 24 23 22 22 21 20 18 16 13 11 10 9 8 7 7 7 6 5 5 6 6 6 6 8 9 11 15 20 24 26 28 28 29 29 29 28 28 28 28
24 24 24 23 22 22 22 20 19 17 16 14 12 11 11 10 10 9 9 7 6 6 6 6 6 6 7 8 9 11 14 17 20 23 26 28 29 30 31 31 32 31
23 23 22 22 21 21 20 19 17 17 16 15 14 13 13 12 11 10 9 9 8 7 7 8 8 7 7 9 9 11 13 16 18 20 22 24 25 26 28 29 29 29
22 22 21 20 20 19 17 16 16 15 14 14 13 13 13 13 13 12 11 11 11 10 10 10 10 9 9 9 10 11 13 16 19 21 22 23 24 26 27 25 22 23
22 21 20 19 18 17 15 15 14 14 14 14 14 14 14 14 14 14 13 13 12 12 12 12 12 13 12 12 12 12 12 14 17 21 23 24 24 25 26 23 20 20
Wind_Direction
188 188 187 188 189 190 190 187 183 179 177 178 174 167 167 168 167 168 167 165 168 175 179 179 178 190 198 193 192 193 190 190 190 190 189 190 192 194 197 198 198 199
182 184 186 187 189 193 195 194 190 187 187 188 186 178 170 167 166 171 173 173 173 178 186 187 182 190 203 201 196 193 187 182 181 179 177 175 173 180 190 194 195 196
179 183 188 190 192 193 192 194 194 195 196 194 193 190 181 173 170 174 178 182 182 183 192 191 184 183 197 200 197 195 188 182 177 172 169 165 161 165 178 189 193 193
180 186 190 192 194 191 189 193 196 200 202 197 193 191 188 185 182 181 182 188 194 193 198 195 185 179 189 194 191 186 182 182 177 172 170 165 163 163 166 177 186 188
180 184 189 192 193 191 192 196 198 201 201 195 192 191 193 194 192 190 188 194 201 196 198 198 188 181 185 189 185 175 172 175 175 177 174 164 161 163 162 169 176 180
179 182 185 188 193 195 198 201 201 202 199 194 191 191 197 200 197 195 189 188 190 183 185 192 189 185 187 191 189 183 179 173 170 171 167 157 153 155 159 168 173 175
175 177 181 185 193 200 203 202 201 200 196 192 190 191 199 201 190 182 173 170 173 175 177 183 186 187 188 196 200 196 193 185 172 165 157 150 148 150 154 165 171 171
171 174 180 183 190 199 201 198 194 192 191 189 190 194 196 187 176 170 166 168 175 182 186 187 189 192 193 200 208 203 196 190 179 169 159 152 149 148 150 158 165 168
172 177 180 178 181 189 192 188 183 185 187 188 189 189 184 178 175 174 176 182 186 189 194 197 202 204 201 201 203 200 193 186 181 177 169 164 160 153 150 153 158 163
170 175 177 175 175 180 182 180 178 180 182 183 183 181 180 182 185 188 190 190 190 193 196 201 210 212 209 202 199 199 196 188 183 184 181 179 178 169 160 158 158 160
162 165 169 170 171 174 174 172 173 177 178 178 177 178 182 186 188 191 197 197 200 204 201 203 213 213 207 201 199 203 205 198 191 193 194 188 184 179 172 168 166 166
166 169 169 164 160 160 161 165 172 179 179 177 179 180 182 189 191 191 196 201 207 210 207 209 216 214 210 208 208 210 208 204 201 201 199 192 187 184 179 176 174 172
172 169 165 161 151 144 147 162 185 189 184 182 189 189 189 198 204 204 205 208 208 207 208 212 216 219 222 217 214 216 212 205 205 206 202 198 197 192 186 186 186 182
165 162 162 168 168 159 157 173 202 203 196 194 202 204 203 209 217 218 219 219 218 214 208 209 212 218 222 217 217 221 217 209 208 210 210 208 207 206 202 203 205 203
137 146 155 164 169 169 171 182 202 206 199 199 208 213 214 220 227 229 227 225 226 223 214 210 215 219 221 221 225 225 217 211 210 215 219 216 211 213 215 217 221 224
129 135 139 142 145 150 158 166 171 170 168 174 191 204 213 224 232 231 229 228 230 228 224 223 225 227 228 224 222 222 216 213 214 217 220 218 216 219 222 224 228 233
131 133 130 123 121 129 138 138 128 124 124 122 127 149 184 209 224 228 231 234 236 234 231 233 235 235 235 227 219 217 216 216 219 221 221 221 225 229 231 230 230 232
108 111 105 96 90 102 117 119 119 125 126 109 97 94 105 136 171 201 232 243 245 243 239 238 240 242 241 233 224 221 222 223 225 227 228 229 232 234 236 237 235 235
86 87 83 80 80 84 90 91 96 112 134 133 93 35 32 48 71 75 337 281 263 256 246 239 240 243 244 241 235 231 230 231 231 231 231 233 236 237 238 238 239 241
77 77 76 75 76 80 83 82 83 89 100 115 103 21 18 17 13 11 349 317 296 280 262 244 240 243 245 244 242 239 237 236 237 237 235 234 237 241 242 242 243 245
68 68 68 68 69 71 73 72 73 76 78 76 67 60 59 52 38 29 19 357 327 305 288 272 257 251 251 250 247 244 242 240 240 241 240 239 239 241 243 245 246 248
60 60 59 58 58 60 59 57 56 57 58 56 54 51 48 49 48 37 25 17 4 337 308 292 286 278 271 267 263 256 250 245 244 243 243 243 243 243 244 245 246 247
54 54 52 50 49 48 46 43 41 40 38 36 33 31 29 28 29 27 20 13 6 353 330 306 297 295 292 286 280 276 268 258 251 247 245 247 247 247 246 245 245 245
50 48 46 44 41 39 35 31 29 27 23 19 15 14 14 12 7 6 9 6 358 350 339 319 300 297 304 301 290 281 276 270 262 255 251 251 252 252 252 248 245 246
46 44 44 43 40 36 31 26 23 19 13 8 5 3 3 0 354 350 350 352 350 346 340 327 310 302 305 306 299 287 280 277 270 261 256 254 255 256 257 253 245 246
39 39 39 39 37 35 31 27 23 16 8 3 360 356 353 349 346 344 341 340 339 337 336 332 322 312 308 310 310 303 296 292 283 270 263 263 263 262 263 260 254 251